AirNav   Bose ProFlight Aviation Headset
 
 892 users online  

8C5 Toledo Municipal Airport
Toledo, Iowa, USA

GOING TO TOLEDO?


FAA INFORMATION EFFECTIVE 13 SEPTEMBER 2018

Location

FAA Identifier: 8C5
Lat/Long: 41-59-17.6338N / 092-32-52.7501W
41-59.293897N / 092-32.879168W
41.9882316 / -92.5479861
(estimated)
Elevation: 960 ft. / 292.6 m (surveyed)
Variation: 03E (1985)
From city: 2 miles E of TOLEDO, IA
Time zone: UTC -5 (UTC -6 during Standard Time)
Zip code: 52342

Airport Operations

Airport use: Open to the public
Activation date: 01/1962
Control tower: no
ARTCC: CHICAGO CENTER
FSS: FORT DODGE FLIGHT SERVICE STATION
NOTAMs facility: FOD (NOTAM-D service available)
Attendance: UNATNDD
Pattern altitude: 1760 ft. MSL
Wind indicator: yes
Segmented circle: no

Airport Communications

CTAF: 122.9
WX ASOS at MIW (18 nm NW): 128.325 (641-752-2339)
WX AWOS-3 at GGI (19 nm SW): 120.725 (641-236-9720)

Nearby radio navigation aids

VOR radial/distance  VOR name  Freq  Var
JWJr114/17.7ELMWOOD VOR/DME109.4001E
TNUr061/27.9NEWTON VOR/DME112.5003E
CIDr275/34.6CEDAR RAPIDS VOR/DME114.1005E
ALOr191/34.7WATERLOO VOR/DME112.2000E

 
NDB name  Hdg/Dist  Freq  Var  ID
WAPSIE224/38.520600EIIB .. .. -...
PELLA025/39.325702EPEA .--. . .-

Airport Services

Parking: tiedowns

Runway Information

Runway 17/35

Dimensions: 1850 x 100 ft. / 564 x 30 m
Surface: turf, in fair condition
Runway edge markings: MKD WITH YELLOW CONES; DSPLCD THLD MKD WITH 3 YELLOW CONES EACH SIDE.
RUNWAY 17  RUNWAY 35
Traffic pattern: leftleft
Displaced threshold: no395 ft.
Obstructions: 35 ft. tree, 720 ft. from runway, 150 ft. right of centerline, 20:1 slope to clear28 ft. pole, 445 ft. from runway, 100 ft. right of centerline, 15:1 slope to clear
RWY 35 APCH SLOPE 41:1 TO DSPLCD THLD.

Airport Ownership and Management from official FAA records

Ownership: Publicly-owned
Owner: CITY OF TOLEDO
CITY CLERK 103 S CHURCH
TOLEDO, IA 52342
Phone 515-484-2160
Manager: JEFF ELSE
401 S. ELM
TOLEDO, IA 52342
Phone 515-484-2741
OTHER CONTACT: KEITH HANUS 515-484-3443

Airport Operational Statistics

Aircraft based on the field: 4
Single engine airplanes: 4
    
Aircraft operations: avg 82/month *
65% local general aviation
35% transient general aviation
* for 12-month period ending 19 October 2017

Additional Remarks

175 FT BY 25 FT ASPH STRIP AT THE AER 17 USED AS TWY.
ARPT CLSD SS-SR.

Instrument Procedures

There are no published instrument procedures at 8C5.

Some nearby airports with instrument procedures:

KTZT - Belle Plaine Municipal Airport (13 nm SE)
KMIW - Marshalltown Municipal Airport (18 nm NW)
KGGI - Grinnell Regional Airport (19 nm SW)
KVTI - Vinton Veterans Memorial Airpark (27 nm NE)
KTNU - Newton Municipal Airport-Earl Johnson Field (28 nm SW)
 
Loc | Ops | Rwys | IFR | FBO | Links
Com | Nav | Svcs | Stats | Notes


 
Area around 8C5 (Toledo Municipal Airport)
 
Road maps at: MapQuest Bing Google
 
Aerial photo
WARNING: Photo may not be current or correct
Aerial photo of 8C5 (Toledo Municipal Airport)
Taken mid August 2008

Do you have a better or more recent aerial photo of Toledo Municipal Airport that you would like to share? If so, please send us your photo.

 
Sectional chart

 
Airport distance calculator
Flying to Toledo Municipal Airport? Find the distance to fly.

From to 8C5

Sunrise and sunset
Times for 22-Sep-2018
 Local
(UTC-5)
 Zulu
(UTC)
Morning civil twilight06:3111:31
Sunrise06:5911:59
Sunset19:0700:07
Evening civil twilight19:3500:35

Current date and time
Zulu (UTC)  22-Sep-2018 20:18:20
Local (UTC-5)  22-Sep-2018 15:18:20
 
METAR
KMIW 
18nm NW 
221953Z AUTO 16008KT 10SM CLR 18/09 A3019 RMK AO2 SLP226 T01830089
KGGI 
19nm SW 
221955Z AUTO 14004KT 10SM CLR 19/07 A3021 RMK AO2 T01870066
KVTI 
27nm NE 
221955Z AUTO 19007KT 10SM CLR 22/08 A3021 RMK AO2 T02160078
KTNU 
28nm SW 
221955Z AUTO VRB03KT 10SM CLR 19/07 A3019 RMK AO2 PWINO
KALO 
34nm N 
221954Z 19003KT 10SM CLR 18/07 A3020 RMK AO2 SLP227 T01780072
TAF
KALO 
34nm N 
221730Z 2218/2318 15009KT P6SM SKC
KCID 
38nm E 
221735Z 2218/2318 15006KT P6SM FEW035 FM230000 14005KT P6SM SKC
NOTAMs
Click for the latest NOTAMs
NOTAMs are issued by the DoD/FAA and will open in a separate window not controlled by AirNav.

 

 
 

Would you like to see your business listed on this page?

 If your business provides an interesting product or service to pilots, flight crews, aircraft, or users of the Toledo Municipal Airport, you should consider listing it here.  To start the listing process, click on the button below
 
Add a business
 

Other Pages about Toledo Municipal Airport

Page from the Iowa Airport Directory
 
Update a link
 
Copyright © AirNav, LLC. All rights reserved. Privacy Policy  Contact